Location: Faramans
(45.9023°N, 5.1252°E)
Time: 05:37:38
(UTC+00:00)

Daily predictions for brighter satellites

Satellite Brightness Start Highest point End
(mag) Time Altitude Azimuth Time Altitude Azimuth Time Altitude Azimuth
SL-16 R/B 4.3 00:12:20 27° NNE 00:12:20 27° NNE 00:15:52 10° N
Cosmos 2297 Rocket 4.4 00:25:50 10° N 00:28:49 21° NNE 00:28:49 21° NNE
Cosmos 2369 Rocket 4.4 00:41:05 20° N 00:41:05 20° N 00:43:10 10° NNE
Resurs 1-4 Rocket 4.5 00:33:23 10° NNE 00:34:54 18° NE 00:34:54 18° NE
CZ-4C R/B 4.4 00:47:10 21° NNW 00:47:10 21° NNW 00:51:50 10° NNE
Cosmos 2227 Rocket 3.9 01:22:24 10° NNW 01:25:13 28° N 01:25:13 28° N
Lacrosse 5 4.3 01:32:48 16° E 01:32:48 16° E 01:34:16 10° ENE
USA 234 4.0 01:27:13 10° E 01:33:26 49° NNE 01:37:43 21° NW
ADEOS II 3.5 01:35:03 10° NNE 01:38:28 35° NE 01:38:28 35° NE
IDEFIX/ARIANE 42P 4.4 01:48:41 10° NE 01:52:54 24° E 01:53:40 23° ESE
SL-16 R/B 4.0 01:57:26 25° NW 01:57:26 25° NW 01:59:57 10° NNW
ARIANE 5 R/B 3.8 01:57:26 10° NNE 02:01:51 35° E 02:01:51 35° E
IRS-1D 4.4 01:57:55 10° NNE 02:01:47 49° NNE 02:01:47 49° NNE
CZ-2D R/B 3.5 01:59:08 10° N 02:02:04 31° NNW 02:02:04 31° NNW
ATLAS 5 CENTAUR R/B 3.5 02:07:56 25° N 02:07:56 25° N 02:10:23 10° NNE
Cosmos 2297 Rocket 4.2 02:09:20 10° NNW 02:10:32 17° NNW 02:10:32 17° NNW
Resurs 1-4 Rocket 3.6 02:13:09 10° N 02:15:58 27° NNW 02:15:58 27° NNW
Cosmos 2082 3.9 02:13:34 10° NNW 02:19:15 67° ENE 02:20:23 54° ESE
X-37B 4.0 02:29:08 10° E 02:29:08 10° E 02:29:13 10° E
SJ 16-02 4.2 02:26:24 10° NNE 02:29:14 16° NE 02:32:03 10° E
Meteor 1-25 Rocket 4.4 02:25:41 10° N 02:31:31 72° ENE 02:33:00 50° SE
Cosmos 1697 Rocket 2.7 02:32:33 72° ESE 02:32:39 72° ESE 02:38:16 10° NNE
ASTEX 1 4.2 02:30:20 10° NNE 02:35:12 48° E 02:36:23 40° SE
IRS-P3 4.1 02:30:28 10° NNE 02:35:28 77° N 02:35:28 77° N
H-2A R/B 4.0 02:33:02 10° SE 02:36:48 29° ENE 02:40:37 10° N
Cosmos 1980 Rocket 3.1 02:35:19 35° SE 02:36:52 43° ESE 02:42:11 10° NE
USA 267 3.2 02:34:30 10° NE 02:41:04 79° NNW 02:42:17 61° WSW
Cosmos 2263 Rocket 3.9 02:40:13 10° N 02:45:17 33° NE 02:50:21 10° ESE
ERS-1 4.4 02:40:22 10° NNE 02:45:32 87° ESE 02:45:42 84° SSE
SL-8 R/B 3.9 02:46:01 68° NNE 02:46:01 68° NNE 02:50:38 10° E
Cosmos 1818 4.4 02:46:11 37° NW 02:46:11 37° NW 02:51:06 10° NNE
USA 307 3.3 02:52:25 60° E 02:52:25 60° E 02:56:01 10° ENE
USA 308 3.2 02:55:23 65° E 02:55:23 65° E 02:59:07 10° ENE
Cosmos 1821 Rocket 3.9 02:48:37 10° NNW 02:54:55 71° W 02:56:29 51° SSW
Cosmos 1470 Rocket 3.9 02:51:46 10° N 02:55:25 59° NNW 02:55:25 59° NNW
Spot 4 Rocket 4.0 02:53:15 10° NNE 02:58:26 78° ESE 02:59:44 51° S
SL-24 R/B 4.3 02:59:51 69° WNW 02:59:51 69° WNW 03:04:38 10° NNW
Landsat 5 4.3 03:00:18 10° SSE 03:04:42 55° ENE 03:09:06 10° N
Celestis-02/Orion 38 4.4 03:00:56 10° SSE 03:06:13 71° WSW 03:11:24 10° NNW
Cosmos 1934 Rocket 3.8 03:03:53 10° N 03:09:58 90° W 03:16:03 10° S
Cosmos 1782 2.7 03:10:11 81° NNW 03:10:11 81° NNW 03:14:05 10° N
Cosmos 1777 Rocket 3.9 03:05:23 10° NNW 03:10:34 63° WSW 03:12:06 43° SSW
Cosmos 2227 Rocket 4.4 03:06:53 10° NW 03:06:57 10° NW 03:06:57 10° NW
Cosmos 1238 Rocket 4.0 03:05:34 10° N 03:12:16 85° E 03:18:27 10° S
Cosmos 1656 4.4 03:12:05 33° WNW 03:12:25 34° NW 03:17:26 10° NNE
Lacrosse 5 1.8 03:12:00 60° W 03:12:50 75° NW 03:17:55 10° NE
ADEOS Rocket 4.2 03:08:52 10° SE 03:15:20 46° ENE 03:21:12 10° N
Cosmos 1515 Rocket 3.4 03:15:07 68° SW 03:15:32 73° W 03:20:00 10° N
CZ-4B R/B 4.5 03:13:33 10° ESE 03:15:37 16° ENE 03:17:42 10° NNE
USA 234 3.1 03:09:48 10° SE 03:16:18 70° SW 03:22:50 10° NW
CZ-2C R/B 2.6 03:14:20 10° NNE 03:18:07 83° ESE 03:18:32 69° S
Meteor 1-20 Rocket 4.3 03:13:19 10° NNW 03:18:31 46° W 03:18:42 46° W
ADEOS II 3.2 03:15:13 10° N 03:19:23 27° WNW 03:19:23 27° WNW
Nadezhda 3 Rocket 4.2 03:18:39 42° WSW 03:20:05 50° WNW 03:26:03 10° N
USA 276 2.9 03:21:38 46° N 03:21:38 46° N 03:24:28 10° ENE
Cosmos 972 Rocket 4.1 03:24:16 46° W 03:24:55 49° WNW 03:29:42 10° N
Cosmos 44 3.2 03:24:49 41° SSW 03:26:16 70° ESE 03:30:53 10° NE
CSL-04 DEB 4.5 03:22:01 10° SSE 03:26:18 89° ENE 03:30:41 10° NNW
Cosmos 1328 Rocket 4.5 03:28:49 32° WNW 03:28:49 32° WNW 03:32:21 10° N
Cosmos 1356 3.3 03:25:12 10° NNW 03:28:28 74° WNW 03:28:28 74° WNW
MSX 3.7 03:23:12 10° NNE 03:29:00 78° WNW 03:32:39 24° SSW
Timation 1 Rocket 4.2 03:24:04 10° NNW 03:30:01 66° WSW 03:35:57 10° SSE
Cosmos 921 Rocket 3.4 03:27:48 22° S 03:30:16 57° ESE 03:34:23 10° NNE
Cosmos 2278 3.7 03:28:11 36° SW 03:30:33 71° WNW 03:36:17 10° NNE
IDEFIX/ARIANE 42P 2.8 03:27:40 10° N 03:32:45 50° WNW 03:34:28 36° WSW
Cosmos 1605 Rocket 4.0 03:26:20 10° N 03:32:47 88° E 03:39:12 10° S
CZ-3B R/B 3.1 03:32:05 28° NW 03:33:27 38° N 03:41:45 10° ENE
Cosmos 1933 Rocket 3.6 03:29:20 10° NNW 03:33:34 50° W 03:34:18 44° SW
Cosmos 1535 Rocket 4.5 03:27:17 10° NNW 03:33:36 65° W 03:39:54 10° S
Cosmos 2228 Rocket 3.0 03:31:12 26° S 03:33:40 89° ESE 03:38:07 10° N
Cosmos 1151 Rocket 4.4 03:37:30 23° NW 03:37:30 23° NW 03:40:23 10° NNW
Cosmos 2369 4.2 03:36:41 33° W 03:38:36 44° NW 03:44:06 10° NNE
ARIANE 5 R/B 3.3 03:36:39 10° N 03:41:10 32° WNW 03:42:10 30° W
CZ-4C R/B 3.1 03:42:40 42° SW 03:43:27 51° W 03:46:59 10° NNW
ALOS 4.1 03:43:41 10° NNE 03:47:52 31° E 03:52:01 10° SSE
IRIDIUM 106 4.3 03:43:29 10° N 03:48:45 89° E 03:53:58 10° S
Cosmos 1536 4.3 03:47:32 10° N 03:51:25 41° ENE 03:55:15 10° SSE
ATLAS 5 CENTAUR R/B 4.0 03:50:07 10° NW 03:52:11 13° NNW 03:54:21 10° NNE
Cosmos 1869 Rocket 3.4 03:48:14 10° N 03:52:37 80° W 03:56:55 10° S
Meteor 1-4 Rocket 2.6 03:52:32 10° S 03:55:57 73° E 03:59:26 10° NNE
Cosmos 1484 Rocket 4.4 03:53:00 10° NNE 03:56:43 36° E 04:00:25 10° SSE
USA 305 3.5 03:58:51 24° W 04:01:00 45° NNW 04:05:06 10° NE
X-37B 0.5 04:01:25 34° W 04:02:38 75° S 04:05:49 10° E
USA 306 3.6 04:02:46 22° W 04:05:05 43° NNW 04:09:10 10° NE
Cosmos 1763 Rocket 3.9 04:00:58 10° S 04:06:13 67° ESE 04:11:31 10° NNE
Cosmos 1727 Rocket 4.0 03:59:55 10° S 04:06:16 87° W 04:12:39 10° N
Cosmos 389 Rocket 3.7 04:06:11 23° WNW 04:06:28 23° WNW 04:09:23 10° NNW
Cosmos 2100 Rocket 4.5 04:01:00 10° N 04:07:22 68° E 04:13:42 10° SSE
Meteor 1-31 Rocket 4.3 04:03:55 10° NNE 04:07:30 37° E 04:11:05 10° SSE
SJ 16-02 1.3 04:03:53 10° NNW 04:08:14 61° WSW 04:12:33 10° S
PSLV R/B 3.6 04:05:57 10° N 04:10:06 56° WNW 04:14:11 10° SSW
Cosmos 2360 Rocket 4.0 04:06:00 10° SSE 04:10:56 32° ESE 04:15:54 10° NE
H-2A R/B 2.8 04:08:49 10° SSW 04:12:41 31° W 04:16:39 10° NNW
ERS-2 2.4 04:10:03 10° S 04:13:33 43° W 04:17:04 10° NNW
Cosmos 1697 Rocket 4.1 04:14:18 15° W 04:17:12 22° NW 04:21:34 10° N
CZ-2C R/B 2.6 04:12:44 10° N 04:17:45 57° WNW 04:22:48 10° SSW
NOSS 3-4 (A) 4.4 04:12:08 10° NW 04:19:02 63° NE 04:26:40 10° SE
NOSS 3-4 (C) 4.4 04:12:15 10° NW 04:19:08 63° NE 04:26:46 10° SE
Gbstr 26 Del rocket 4.4 04:11:35 10° WNW 04:19:41 85° SSW 04:26:46 10° ESE
Cosmos 1980 Rocket 3.0 04:17:07 16° WSW 04:20:57 34° NW 04:26:07 10° NNE
PAYLOAD A 4.1 04:16:46 10° N 04:21:15 44° WNW 04:25:42 10° SW
USA 267 4.1 04:17:38 10° NE 04:23:36 39° NNW 04:29:34 10° W
FENGYUN 3A 3.9 04:20:03 10° NNE 04:25:27 74° ESE 04:30:50 10° S
Meteor 1-10 Rocket 4.4 04:20:21 10° SSW 04:25:58 54° WNW 04:31:44 10° N
Cosmos 2322 Rocket 2.4 04:20:26 10° SSW 04:26:04 76° ESE 04:31:47 10° NNE
SJ-6F 4.4 04:22:54 10° N 04:27:01 70° WNW 04:31:04 10° SSW
Cosmos 990 Rocket 4.0 04:22:48 10° NNW 04:27:55 61° WSW 04:33:02 10° S
NOSS 3-3 (A) 4.0 04:22:36 12° SW 04:28:01 64° NW 04:34:36 10° NE
NOSS 3-3 (C) 4.0 04:22:46 12° SW 04:28:08 64° NW 04:34:40 10° NE
SL-8 R/B 3.8 04:24:00 11° WNW 04:28:25 57° SSW 04:33:05 10° SE
Cosmos 1459 Rocket 4.0 04:23:01 10° N 04:29:09 88° E 04:35:12 10° S
Cosmos 2263 Rocket 2.5 04:24:00 10° NW 04:29:22 45° WSW 04:34:44 10° S
Cosmos 1812 3.6 04:27:26 10° SW 04:30:45 29° WNW 04:34:11 10° NNW
Cosmos 468 Rocket 4.0 04:25:35 10° SSW 04:30:52 69° WNW 04:36:09 10° NNE
USA 307 3.9 04:28:36 12° W 04:32:06 35° NNW 04:36:02 10° NE
SL-16 R/B 2.2 04:28:05 10° SSW 04:33:46 80° WNW 04:39:29 10° NNE
USA 308 4.0 04:31:34 11° W 04:35:13 34° NNW 04:39:08 10° NE
COSMO-SKYMED 1 3.3 04:31:07 10° SSE 04:35:23 60° ENE 04:39:41 10° N
Cosmos 1844 Rocket 3.7 04:30:53 10° NNW 04:36:21 50° ENE 04:41:51 10° SE
SL-4 R/B 3.3 04:34:05 10° SW 04:38:29 46° SE 04:43:05 10° ENE
Cosmos 540 Rocket 3.9 04:34:23 10° S 04:39:29 67° ESE 04:44:38 10° NNE
Cosmos 44 Rocket 4.5 04:36:33 10° S 04:41:00 43° ESE 04:45:35 10° NE
ATLAS CENTAUR R/B 3.8 04:32:30 10° NW 04:41:35 43° NNE 04:45:23 10° E
Cosmos 1666 3.3 04:39:02 10° NNW 04:42:32 35° W 04:46:00 10° SSW
ATLAS 2AS CENTAUR R/B 3.2 04:35:36 10° NW 04:43:10 72° NE 04:50:06 10° SE
ERBS 2.4 04:43:01 10° WSW 04:46:20 59° NW 04:49:40 10° NE
CZ-4B R/B 2.1 04:44:56 10° SSW 04:47:40 27° W 04:50:29 10° NW
Cosmos 1544 4.4 04:44:58 10° N 04:48:27 45° ENE 04:51:55 10° SSE
deb Chang Zheng 4 4.0 04:51:58 10° N 04:56:01 40° WNW 05:00:01 10° SW
Cosmos 1898 Rocket 4.0 04:51:31 10° NW 04:56:21 38° WSW 05:01:12 10° S
Lacrosse 5 3.2 04:52:06 10° WNW 04:56:29 28° NNW 05:00:52 10° NE
